Погода в Елшанке

Россия / Саратовская область     51°48′53″N   46°23′41″E
темп.,
°C
ветер,
м/с
пор.,
м/с
влажн.,
%
обл.,
%
осадки,
мм/ч
давл.,
гПа
погр.,
м
28 ноября, вс
вс2801:000ююв61492100 0.0 1019546
04:00+1ююв61496100 0.4 1017571
07:00+1ююв61492100 0.3 1016533
10:00+2ююв61388100 0.6 1015558
13:00+3ю51286100 0.0 1015514
16:00+3ю4991100 0.1 1015336
19:00+3ююв3696100 0.1 1016175
22:00+3ююв3498100 0.1 101696
29 ноября, пн
пн2901:00+3ююв3698100 0.0 1017146
04:00+4юв2498100 0.0 101786
07:00+4юв379883 0.0 1017189
10:00+4юв41195100 0.0 1016340
13:00+6ююв51389100 0.4 1015539
16:00+6ююв81885100 2.2 1013697
19:00+6ююв71677100 0.1 1012648
22:00+6ююв71680100 0.1 1009605
30 ноября, вт
вт3001:00+6ююв81881100 2.4 1006641
04:00+6ю102283100 3.5 1002774
07:00+7ю112386100 1.3 998861
10:00+8ю112090100 3.8 996931
13:00+10ююз101782100 0.1 9961132
16:00+8юз7145810 0.1 997725
19:00+6юз5116115 0.0 999296
22:00+4ююз410731 0.0 999220
1 декабря, ср
ср101:00+2ююз388182 0.0 999147
04:00+1ююз2281100 0.0 99719
07:00+1ююв2279100 0.0 99536
10:00+1ссз2493100 1.0 994179
13:00+1сз4998100 4.1 993335
16:00+1зсз6118599 4.3 995875
19:00−1з613795 0.0 998703
22:00−1зюз71379100 0.0 1000771
2 декабря, чт
чт201:00−1зюз6127896 0.0 1002842
04:00−2зюз612815 0.0 1004573
07:00−2зюз511855 0.0 1006507
10:00−1зюз5108698 0.0 1008685
13:00+1юз5980100 0.0 1009964
16:000юз597863 0.1 1010422
19:000ююз5118373 0.0 1011424
22:000ююз61294100 0.2 1010612